[[{"header":{"parameterUnit":"m.s-1","parameterCategory":2,"la1":30.2991,"la2":30.254,"lo1":-89.0895,"lo2":-89.0444,"dy":0.0017,"dx":0.0017,"nx":28,"ny":28,"refTime":"2025-08-04T21:00:00:Z","depth":"0","parameterNumber":2,"parameterNumberName":"U-component_of_CURRENTS"},"data":[0,0,0,0,0,0,0,0,0,0,0,0,0,0,0,0,0,0,0,0,0,0,0,0,0,0,0,0,0,0,0,0,0,0,0,0,0,0,0,0,0,0,0,0,0,0,0,0,0,0,0,0,0,0,0,0,0,0,0.1827,0.1826,0,0.1772,0.1771,0.1771,0.1738,0.1738,0.1738,0.1738,0.1702,0.1701,0.17,0,0,0,0,0,0,0,0,0,0,0,0,0,0.1897,0.1896,0.1827,0.1826,0.1826,0.1772,0.1771,0.177,0.1738,0.1738,0.1738,0.1738,0.1702,0.1701,0.17,0,0,0,0,0,0,0,0,0,0,0,0,0,0.1856,0.1895,0.1827,0.1803,0.1801,0.1772,0.1771,0.177,0.1738,0.1738,0.1738,0.1737,0.1703,0.1701,0.17,0.1694,0,0,0.1696,0.1695,0,0,0,0,0,0,0,0,0.1858,0.1853,0.1808,0.1805,0.1802,0.1762,0.1783,0.1746,0.1738,0.1761,0.1738,0.1737,0.1724,0.1721,0.171,0.1693,0.1691,0.1696,0.1695,0.1695,0.1694,0,0,0,0,0,0,0,0.1861,0.1856,0.1804,0.1807,0.1804,0.1793,0.1787,0.1776,0.1744,0.1759,0.1757,0.1752,0.1723,0.1711,0.1709,0.1691,0.1696,0.1695,0.1694,0.1693,0.1867,0.1873,0,0,0,0,0,0,0.187,0.1858,0.1806,0.1803,0.1831,0.1792,0.1786,0.1775,0.1744,0.1739,0.1752,0.175,0.1714,0.1711,0.1708,0.1826,0.1695,0.1693,0.1693,0.1862,0.1869,0.1874,0,0,0,0,0,0,0.1871,0.1865,0.1808,0.183,0.1822,0.1791,0.1779,0.1774,0.1769,0.1738,0.1733,0.1754,0.1713,0.1709,0.1748,0.182,0.1693,0.1692,0.1856,0.1864,0.1872,0.1983,0,0,0,0,0,0,0.1873,0.1866,0.1867,0.1831,0.1822,0.1819,0.1779,0.1773,0.1766,0.1764,0.1738,0.1734,0.1713,0.1751,0.1747,0.1816,0.1691,0.1849,0.1859,0.1869,0.1972,0.1994,0.2012,0,0,0,0,0,0.1876,0.1893,0.1867,0.1861,0.1821,0.1821,0.1816,0.1793,0.1767,0.1784,0.1785,0.1735,0.1814,0.1753,0.1747,0.1818,0.1844,0.1856,0.1868,0.1963,0.1989,0.2011,0,0,0,0,0,0,0.1928,0.189,0.1861,0.1864,0.1851,0.1816,0.1827,0.18,0.1808,0.1806,0.1774,0.1772,0.1839,0.1826,0.1759,0.1911,0.1833,0.1845,0.1908,0.1932,0.1951,0.1981,0.1689,0,0,0,0,0,0.1936,0.1933,0.1899,0.1901,0.1897,0.1858,0.1853,0.1834,0.1831,0.1831,0.1817,0.1836,0.1885,0.1902,0.1923,0.1981,0.2,0.2041,0.2061,0.2077,0.2108,0.2226,0.2258,0.1914,0.1914,0.1914,0,0,0.1952,0.1933,0.1929,0.1911,0.1893,0.1924,0.1856,0.1858,0.1899,0.1828,0.1883,0.1885,0.1917,0.2,0.2031,0.1994,0.2184,0.2093,0.2106,0.2128,0.2242,0.2275,0.2304,0.1923,0.1921,0.192,0,0,0.2014,0.197,0.2003,0.1999,0.1984,0.197,0.1976,0.195,0.1955,0.2,0.1989,0.2061,0.2077,0.2151,0.2185,0.2337,0.2278,0.2325,0.2447,0.2561,0.2589,0.2614,0.2657,0.2685,0.2342,0.2342,0.2343,0,0.2041,0.2065,0.2016,0.2056,0.2062,0.2002,0.205,0.2061,0.2056,0.2079,0.2045,0.2155,0.218,0.2326,0.2395,0.2383,0.2392,0.2336,0.2583,0.2609,0.2632,0.2671,0.27,0.2349,0.2348,0.2348,0.2347,0,0.2133,0.2153,0.2175,0.2203,0.221,0.2233,0.2233,0.225,0.2237,0.2247,0.2346,0.2387,0.2457,0.2495,0.2491,0.2678,0.2608,0.258,0.2507,0.2673,0.2703,0.2732,0.2359,0.2357,0.2355,0.2353,0,0,0.2186,0.2232,0.2237,0.2263,0.2279,0.2288,0.2368,0.2417,0.2461,0.2491,0.2575,0.2709,0.2688,0.2734,0.2737,0.2855,0.3039,0.279,0.2792,0.2805,0.3228,0.3065,0.3079,0.3023,0.303,0.3035,0.317,0,0.2271,0.2365,0.237,0.2455,0.2494,0.2471,0.2542,0.2577,0.2597,0.2661,0.2736,0.281,0.279,0.2815,0.2941,0.2995,0.3123,0.3002,0.309,0.3093,0.2908,0.3112,0.2883,0.2975,0.3197,0.3202,0.3205,0,0.236,0.2405,0.2504,0.2553,0.2567,0.2616,0.267,0.2723,0.2807,0.2823,0.2908,0.2918,0.309,0.3045,0.3262,0.3161,0.3232,0.3281,0.3286,0.3121,0.2987,0.2856,0.3017,0.2841,0.3249,0.3245,0.3242,0,0.2399,0.249,0.2564,0.2581,0.2645,0.2682,0.271,0.2774,0.2811,0.2917,0.2946,0.3098,0.3158,0.3298,0.3373,0.3327,0.358,0.3528,0.3461,0.3446,0.3268,0.3227,0.3252,0.3749,0.3749,0.3748,0.3748,0,0.2472,0.2526,0.2582,0.2616,0.269,0.2711,0.2785,0.2827,0.2896,0.2952,0.3018,0.3083,0.3227,0.3342,0.3431,0.3511,0.3634,0.3533,0.3506,0.3296,0.3258,0.3105,0.3058,0.3753,0.3752,0.3751,0.375,0,0.2508,0.2548,0.2628,0.2696,0.2712,0.2756,0.2801,0.2848,0.29,0.2975,0.3008,0.311,0.3236,0.3352,0.3565,0.3552,0.354,0.3682,0.3379,0.3315,0.303,0.2999,0.3007,0.2938,0.3629,0.3627,0.3625,0,0.2544,0.2594,0.2668,0.2699,0.2731,0.2782,0.281,0.2853,0.2886,0.2978,0.3016,0.3139,0.3196,0.3385,0.3418,0.3526,0.3471,0.3363,0.3277,0.3029,0.2979,0.2908,0.2846,0.3084,0.3077,0.3072,0.3068,0,0.2621,0.2643,0.2699,0.2734,0.277,0.2796,0.283,0.2847,0.289,0.2926,0.2972,0.3021,0.3135,0.3096,0.3186,0.3235,0.3114,0.3252,0.3117,0.2676,0.2489,0.2398,0.2932,0.302,0.3025,0.3028,0.3031,0.3033,0.2679,0.2705,0.2748,0.2765,0.2791,0.277,0.2743,0.2768,0.2766,0.2751,0.287,0.2876,0.2824,0.2885,0.2897,0.2668,0.281,0.2543,0.2564,0.2543,0.2369,0.2758,0.2729,0.2732,0.2735,0.2737,0.2739,0,0.2722,0.2725,0.2763,0.2749,0.2719,0.2734,0.2716,0.264,0.2572,0.2632,0.2625,0.255,0.2411,0.2377,0.2131,0.1979,0.1953,0.1903,0.1763,0.1773,0.2208,0.2066,0.1742,0.1742,0.1742,0.1742,0.1743,0.1743,0.2757,0.2763,0.2736,0.2657,0.2626,0.2503,0.2452,0.2362,0.2352,0.2237,0.2194,0.2218,0.2073,0.1741,0.1446,0.1416,0.1327,0.1217,0.1328,0.1582,0.1643,0.17,0.1554,0.1127,0.1127,0.0764,0.0761,0.0758]},{"header":{"parameterUnit":"m.s-1","parameterCategory":2,"la1":30.2991,"la2":30.254,"lo1":-89.0895,"lo2":-89.0444,"dy":0.0017,"dx":0.0017,"nx":28,"ny":28,"refTime":"2025-08-04T21:00:00:Z","depth":"0","parameterNumber":3,"parameterNumberName":"V-component_of_CURRENTS"},"data":[0,0,0,0,0,0,0,0,0,0,0,0,0,0,0,0,0,0,0,0,0,0,0,0,0,0,0,0,0,0,0,0,0,0,0,0,0,0,0,0,0,0,0,0,0,0,0,0,0,0,0,0,0,0,0,0,0,0,0.015,0.0151,0,0.0138,0.0138,0.0137,0.009,0.0089,0.0088,0.0088,0.003,0.0029,0.0028,0,0,0,0,0,0,0,0,0,0,0,0,0,0.0108,0.0109,0.015,0.0151,0.0151,0.0138,0.0138,0.0137,0.009,0.0089,0.0088,0.0087,0.003,0.0029,0.0028,0,0,0,0,0,0,0,0,0,0,0,0,0,0.0111,0.011,0.015,0.0129,0.0127,0.0139,0.0138,0.0137,0.009,0.0089,0.0088,0.0087,0.0031,0.0029,0.0028,0.0042,0,0,0.0024,0.0024,0,0,0,0,0,0,0,0,0.0111,0.0112,0.0132,0.013,0.0128,0.0118,0.0102,0.0104,0.009,0.01,0.0088,0.0086,0.0059,0.0055,0.005,0.0039,0.0036,0.0024,0.0023,0.0023,0.0022,0,0,0,0,0,0,0,0.0111,0.0112,0.0141,0.0132,0.013,0.0112,0.0111,0.0102,0.0081,0.0099,0.0096,0.0102,0.0057,0.0051,0.0048,0.0036,0.0024,0.0023,0.0022,0.0022,0.0129,0.0133,0,0,0,0,0,0,0.0123,0.0112,0.0142,0.0142,0.0121,0.0114,0.0112,0.0119,0.0082,0.0077,0.0103,0.01,0.0054,0.005,0.0046,0.0125,0.0023,0.0021,0.0021,0.0126,0.013,0.0134,0,0,0,0,0,0,0.0122,0.0126,0.0143,0.0129,0.0131,0.0116,0.0124,0.012,0.0113,0.0087,0.008,0.0101,0.0053,0.0048,0.0068,0.0119,0.0021,0.002,0.0122,0.0127,0.0132,0.024,0,0,0,0,0,0,0.0121,0.0126,0.0131,0.0131,0.0132,0.0164,0.0125,0.012,0.012,0.0116,0.0083,0.0076,0.0052,0.0071,0.0067,0.0116,0.0019,0.0117,0.0124,0.0131,0.0232,0.0249,0.0263,0,0,0,0,0,0.012,0.0144,0.0132,0.0135,0.0142,0.0165,0.0165,0.0147,0.0121,0.0133,0.0123,0.0077,0.0112,0.0072,0.0067,0.0117,0.0114,0.0122,0.013,0.0225,0.0246,0.0263,0,0,0,0,0,0,0.0124,0.0142,0.0128,0.0153,0.0162,0.0159,0.0169,0.0153,0.0152,0.0146,0.0109,0.0105,0.0148,0.0124,0.0081,0.0175,0.0111,0.0119,0.0186,0.0204,0.0219,0.0236,0.0018,0,0,0,0,0,0.013,0.0154,0.0161,0.0181,0.0188,0.0176,0.018,0.0172,0.0173,0.017,0.0154,0.0155,0.018,0.0182,0.0193,0.0229,0.0216,0.0267,0.0282,0.0295,0.031,0.0372,0.0394,0.0161,0.0161,0.0161,0,0,0.0138,0.0151,0.0162,0.0184,0.0185,0.0221,0.0175,0.0194,0.0228,0.0166,0.0205,0.0202,0.0204,0.0258,0.0276,0.024,0.035,0.0306,0.0316,0.0324,0.0383,0.0405,0.0425,0.0167,0.0166,0.0165,0,0,0.0183,0.0177,0.0217,0.0234,0.0252,0.0253,0.0262,0.0268,0.0272,0.0313,0.0293,0.0331,0.034,0.0371,0.0383,0.0493,0.0432,0.0491,0.0574,0.0634,0.0653,0.0669,0.065,0.0664,0.0496,0.0496,0.0496,0,0.0189,0.0235,0.0231,0.0278,0.0295,0.0274,0.0318,0.0336,0.0351,0.0367,0.0344,0.0413,0.0409,0.0495,0.054,0.0528,0.0518,0.0494,0.0652,0.0669,0.0684,0.066,0.0674,0.0502,0.0501,0.0501,0.05,0,0.0272,0.0302,0.0329,0.038,0.0401,0.0434,0.0457,0.048,0.0478,0.0495,0.0566,0.058,0.0617,0.0637,0.0619,0.0733,0.0673,0.0663,0.0597,0.0713,0.068,0.0693,0.0511,0.0509,0.0507,0.0505,0,0,0.0296,0.037,0.0379,0.0402,0.045,0.0472,0.0541,0.0588,0.063,0.0666,0.0734,0.0801,0.079,0.0808,0.0799,0.0859,0.0948,0.0808,0.0808,0.0773,0.1023,0.0942,0.0947,0.096,0.0964,0.0967,0.0943,0,0.0353,0.0443,0.0471,0.0545,0.0581,0.0591,0.0652,0.0697,0.0728,0.0795,0.0837,0.0898,0.0861,0.0883,0.0944,0.0955,0.0993,0.0952,0.0929,0.0928,0.0831,0.0965,0.0939,0.0915,0.0955,0.0957,0.0959,0,0.0422,0.0467,0.0547,0.0603,0.062,0.0667,0.073,0.0785,0.0876,0.0904,0.0976,0.0996,0.1091,0.1048,0.1123,0.1092,0.107,0.107,0.1069,0.097,0.0874,0.0815,0.0936,0.0852,0.0977,0.0976,0.0974,0,0.0426,0.0514,0.0568,0.0594,0.0668,0.0699,0.0735,0.0814,0.0873,0.0977,0.1037,0.112,0.1176,0.12,0.1183,0.1163,0.1247,0.1212,0.1109,0.1098,0.1062,0.1043,0.1093,0.1275,0.1275,0.1275,0.1275,0,0.0469,0.0512,0.0571,0.0603,0.0665,0.0705,0.0786,0.0835,0.0938,0.1036,0.1087,0.1183,0.1227,0.1268,0.1232,0.1205,0.1277,0.115,0.1119,0.1094,0.1079,0.0989,0.0948,0.1274,0.1274,0.1275,0.1275,0,0.0479,0.0519,0.0579,0.0648,0.0671,0.0713,0.0812,0.0884,0.0961,0.1098,0.1141,0.1255,0.1307,0.13,0.1335,0.1261,0.1193,0.12,0.1124,0.1086,0.0902,0.0868,0.0889,0.0868,0.1097,0.1096,0.1094,0,0.0501,0.0533,0.0603,0.064,0.0675,0.0742,0.0807,0.0891,0.0981,0.1144,0.1227,0.1313,0.1391,0.1373,0.1292,0.1205,0.1145,0.1075,0.1055,0.0918,0.0859,0.0844,0.0825,0.1028,0.1026,0.1025,0.1023,0,0.0536,0.0553,0.06,0.0666,0.0729,0.0813,0.0908,0.0982,0.1105,0.1212,0.1353,0.1421,0.1419,0.1365,0.1229,0.1149,0.1019,0.1038,0.0964,0.0878,0.0806,0.0759,0.095,0.101,0.1011,0.1012,0.1013,0.1014,0.0559,0.0584,0.0634,0.0698,0.0776,0.0879,0.0944,0.106,0.1188,0.1344,0.1414,0.1518,0.1417,0.1259,0.1134,0.0872,0.093,0.0787,0.077,0.0777,0.0742,0.0859,0.0844,0.0844,0.0844,0.0844,0.0845,0,0.0578,0.0605,0.0668,0.0744,0.0828,0.0868,0.1015,0.1081,0.1216,0.1368,0.1464,0.1488,0.1319,0.1138,0.0816,0.0646,0.0618,0.0551,0.0554,0.056,0.0723,0.0703,0.0576,0.0576,0.0576,0.0576,0.0576,0.0576,0.0592,0.0632,0.0654,0.0769,0.0831,0.0929,0.1006,0.1108,0.1225,0.136,0.1445,0.1514,0.136,0.0844,0.0487,0.042,0.0361,0.0328,0.0315,0.0425,0.0446,0.0467,0.044,0.0261,0.026,0.0172,0.0171,0.017]}],[{"header":{"parameterUnit":"m.s-1","parameterCategory":2,"la1":30.2991,"la2":30.254,"lo1":-89.0895,"lo2":-89.0444,"dy":0.0017,"dx":0.0017,"nx":28,"ny":28,"refTime":"2025-08-04T21:00:00:Z","depth":"2","parameterNumber":2,"parameterNumberName":"U-component_of_CURRENTS"},"data":[0,0,0,0,0,0,0,0,0,0,0,0,0,0,0,0,0,0,0,0,0,0,0,0,0,0,0,0,0,0,0,0,0,0,0,0,0,0,0,0,0,0,0,0,0,0,0,0,0,0,0,0,0,0,0,0,0,0,0.1545,0.1546,0,0.154,0.1539,0.1538,0.1539,0.1539,0.154,0.154,0.1537,0.1536,0.1535,0,0,0,0,0,0,0,0,0,0,0,0,0,0.1548,0.1548,0.1545,0.1546,0.1546,0.154,0.1539,0.1538,0.1538,0.1539,0.154,0.1541,0.1537,0.1536,0.1535,0,0,0,0,0,0,0,0,0,0,0,0,0,0.154,0.1547,0.1545,0.155,0.1551,0.154,0.1539,0.1538,0.1538,0.1539,0.154,0.1541,0.1537,0.1536,0.1535,0.1511,0,0,0.1532,0.1532,0,0,0,0,0,0,0,0,0.154,0.1539,0.1549,0.155,0.1551,0.1546,0.1539,0.1531,0.1538,0.1537,0.154,0.1541,0.1543,0.1542,0.153,0.151,0.151,0.1532,0.1531,0.1531,0.1531,0,0,0,0,0,0,0,0.1541,0.1539,0.1537,0.1549,0.155,0.155,0.1549,0.1537,0.153,0.1537,0.1538,0.1547,0.1543,0.1531,0.153,0.151,0.1532,0.1531,0.1531,0.153,0.1611,0.1613,0,0,0,0,0,0,0.1552,0.1539,0.1537,0.1538,0.1554,0.1549,0.1548,0.1542,0.153,0.1531,0.1546,0.1547,0.1532,0.1531,0.153,0.1594,0.1531,0.153,0.153,0.1608,0.1611,0.1614,0,0,0,0,0,0,0.1552,0.1551,0.1538,0.1544,0.1543,0.1549,0.1541,0.1541,0.1548,0.1538,0.1538,0.1557,0.1533,0.1532,0.155,0.159,0.153,0.1529,0.1605,0.1609,0.1613,0.1661,0,0,0,0,0,0,0.1552,0.1551,0.1561,0.1544,0.1543,0.155,0.1541,0.1541,0.1554,0.1555,0.1547,0.1547,0.1534,0.1552,0.155,0.1588,0.1528,0.1601,0.1606,0.1611,0.1656,0.1666,0.1675,0,0,0,0,0,0.1552,0.1563,0.1561,0.1562,0.1552,0.1551,0.155,0.1554,0.1554,0.1562,0.1566,0.1548,0.1584,0.1552,0.1549,0.1588,0.1599,0.1605,0.1611,0.1652,0.1664,0.1675,0,0,0,0,0,0,0.1571,0.1563,0.1561,0.157,0.157,0.1554,0.1565,0.1563,0.1568,0.1575,0.156,0.1561,0.16,0.1591,0.1556,0.1634,0.1597,0.1603,0.163,0.1641,0.1651,0.1683,0.1527,0,0,0,0,0,0.1579,0.1577,0.1576,0.158,0.1584,0.1575,0.1579,0.1581,0.1581,0.1584,0.158,0.1594,0.1618,0.1626,0.1637,0.1659,0.169,0.1694,0.1703,0.1711,0.174,0.1826,0.1846,0.1634,0.1634,0.1634,0,0,0.1587,0.1582,0.1583,0.1584,0.1579,0.1592,0.1578,0.1589,0.1607,0.1582,0.1606,0.1619,0.1634,0.1671,0.1689,0.1668,0.1787,0.1719,0.1725,0.1751,0.1835,0.1855,0.1874,0.1638,0.1638,0.1637,0,0,0.1602,0.1597,0.1607,0.1609,0.1618,0.1614,0.1624,0.1622,0.1632,0.1659,0.166,0.171,0.1716,0.175,0.1766,0.1839,0.1835,0.1837,0.1904,0.1986,0.2004,0.2021,0.2076,0.2096,0.184,0.184,0.184,0,0.1616,0.1613,0.1612,0.1626,0.1628,0.1628,0.1642,0.1655,0.1663,0.1698,0.1684,0.1764,0.177,0.1844,0.1876,0.1862,0.1893,0.1848,0.1998,0.2015,0.2031,0.2083,0.2105,0.1843,0.1843,0.1842,0.1842,0,0.1633,0.1639,0.1643,0.1653,0.1668,0.1668,0.1692,0.1723,0.174,0.1771,0.1852,0.1866,0.1932,0.1936,0.1926,0.2041,0.202,0.1997,0.1962,0.2055,0.2104,0.2126,0.1847,0.1846,0.1845,0.1845,0,0,0.1632,0.1648,0.165,0.1666,0.1672,0.1693,0.1736,0.1789,0.186,0.1888,0.1978,0.2032,0.2066,0.209,0.2085,0.2147,0.2277,0.2121,0.2124,0.2165,0.2444,0.2243,0.2248,0.2269,0.2274,0.2278,0.2429,0,0.1636,0.1659,0.1665,0.17,0.1715,0.1738,0.1787,0.1854,0.1913,0.2008,0.2064,0.2152,0.2114,0.2162,0.2221,0.2267,0.234,0.2237,0.236,0.2364,0.2165,0.2269,0.2052,0.2152,0.245,0.2454,0.2457,0,0.1649,0.1659,0.1688,0.1736,0.1749,0.179,0.189,0.1936,0.2072,0.213,0.2231,0.2278,0.239,0.2341,0.2483,0.2414,0.2454,0.2475,0.2481,0.2297,0.2205,0.2113,0.2181,0.2494,0.2491,0.2488,0.2486,0,0.1659,0.1681,0.1703,0.1711,0.1773,0.1826,0.1873,0.1998,0.2072,0.2233,0.2325,0.2435,0.2528,0.2586,0.2617,0.2581,0.2749,0.2708,0.2567,0.2553,0.2396,0.2358,0.2841,0.2841,0.284,0.284,0.284,0,0.1657,0.1685,0.1723,0.1747,0.1821,0.1862,0.1982,0.206,0.2191,0.2314,0.2401,0.25,0.2602,0.2685,0.2686,0.2678,0.2817,0.2611,0.2592,0.2401,0.2364,0.2679,0.2658,0.2846,0.2844,0.2843,0.2842,0,0.1691,0.1691,0.174,0.1804,0.1838,0.1909,0.2036,0.2133,0.2249,0.241,0.2472,0.2618,0.2708,0.2748,0.286,0.2772,0.2779,0.2744,0.2487,0.2431,0.2518,0.2499,0.2634,0.2629,0.2624,0.262,0.2617,0,0.1708,0.1734,0.1801,0.1852,0.1894,0.1994,0.2074,0.217,0.2265,0.2458,0.2534,0.2676,0.2698,0.2733,0.264,0.2592,0.2713,0.2377,0.2259,0.2536,0.2505,0.2492,0.248,0.2094,0.2086,0.208,0.2075,0,0.1767,0.1794,0.1844,0.1931,0.2012,0.2088,0.2199,0.2253,0.2376,0.2447,0.2537,0.2552,0.2566,0.2381,0.2303,0.2249,0.2348,0.2246,0.2676,0.2129,0.2024,0.1992,0.2,0.2022,0.2028,0.2031,0.2034,0.2036,0.1838,0.1874,0.1944,0.2019,0.2109,0.2173,0.2208,0.2281,0.233,0.2345,0.2382,0.225,0.2249,0.1938,0.1871,0.1821,0.1975,0.19,0.1922,0.1949,0.1809,0.1696,0.1608,0.1611,0.1613,0.1615,0.1617,0,0.1901,0.1954,0.2032,0.2101,0.2157,0.2228,0.2291,0.2218,0.2202,0.2125,0.2044,0.1696,0.1529,0.1554,0.1357,0.1312,0.1338,0.1296,0.134,0.1391,0.1438,0.1275,0.0931,0.0929,0.0928,0.0926,0,0,0.1961,0.2013,0.2015,0.21,0.2184,0.2216,0.2226,0.2078,0.1945,0.1662,0.1485,0.1392,0.143,0.1136,0.1109,0.0997,0.1192,0.095,0.1495,0.1596,0.164,0.1771,0.1574,0,0,0,0,0]},{"header":{"parameterUnit":"m.s-1","parameterCategory":2,"la1":30.2991,"la2":30.254,"lo1":-89.0895,"lo2":-89.0444,"dy":0.0017,"dx":0.0017,"nx":28,"ny":28,"refTime":"2025-08-04T21:00:00:Z","depth":"2","parameterNumber":3,"parameterNumberName":"V-component_of_CURRENTS"},"data":[0,0,0,0,0,0,0,0,0,0,0,0,0,0,0,0,0,0,0,0,0,0,0,0,0,0,0,0,0,0,0,0,0,0,0,0,0,0,0,0,0,0,0,0,0,0,0,0,0,0,0,0,0,0,0,0,0,0,-0.0037,-0.0037,0,-0.0051,-0.0051,-0.0052,-0.0065,-0.0065,-0.0065,-0.0065,-0.0125,-0.0127,-0.0129,0,0,0,0,0,0,0,0,0,0,0,0,0,-0.0044,-0.0044,-0.0037,-0.0037,-0.0037,-0.0051,-0.0051,-0.0052,-0.0065,-0.0065,-0.0065,-0.0065,-0.0125,-0.0127,-0.0129,0,0,0,0,0,0,0,0,0,0,0,0,0,-0.0051,-0.0044,-0.0037,-0.0043,-0.0043,-0.0051,-0.0051,-0.0052,-0.0065,-0.0065,-0.0065,-0.0064,-0.0124,-0.0127,-0.0129,-0.0149,0,0,-0.0137,-0.0138,0,0,0,0,0,0,0,0,-0.005,-0.0051,-0.0042,-0.0042,-0.0043,-0.0053,-0.0076,-0.0086,-0.0065,-0.006,-0.0065,-0.0064,-0.0103,-0.0108,-0.0115,-0.0152,-0.0155,-0.0137,-0.0139,-0.014,-0.0141,0,0,0,0,0,0,0,-0.005,-0.005,-0.0046,-0.0042,-0.0042,-0.0051,-0.0052,-0.0078,-0.0086,-0.0061,-0.0061,-0.0057,-0.0104,-0.0112,-0.0116,-0.0156,-0.0137,-0.014,-0.0141,-0.0142,-0.0186,-0.0185,0,0,0,0,0,0,-0.004,-0.005,-0.0046,-0.0046,-0.0042,-0.0051,-0.0052,-0.0053,-0.0085,-0.0088,-0.0057,-0.0058,-0.0108,-0.0113,-0.0119,-0.014,-0.014,-0.0142,-0.0144,-0.0186,-0.0186,-0.0185,0,0,0,0,0,0,-0.0041,-0.004,-0.0045,-0.0045,-0.0046,-0.0051,-0.0051,-0.0053,-0.0057,-0.0081,-0.0086,-0.0058,-0.0108,-0.0115,-0.0138,-0.0143,-0.0144,-0.0146,-0.0187,-0.0186,-0.0186,-0.0186,0,0,0,0,0,0,-0.0041,-0.004,-0.004,-0.0045,-0.0046,-0.0046,-0.0051,-0.0053,-0.0053,-0.0054,-0.0084,-0.0089,-0.0108,-0.0134,-0.014,-0.0146,-0.0148,-0.0187,-0.0186,-0.0186,-0.0187,-0.0186,-0.0185,0,0,0,0,0,-0.0041,-0.0039,-0.004,-0.0039,-0.0044,-0.0046,-0.0048,-0.0052,-0.0053,-0.0055,-0.0074,-0.0088,-0.0133,-0.0136,-0.0144,-0.0151,-0.0188,-0.0187,-0.0186,-0.0187,-0.0186,-0.0185,0,0,0,0,0,0,-0.0047,-0.004,-0.0041,-0.0039,-0.004,-0.0046,-0.0048,-0.0049,-0.0066,-0.0066,-0.0092,-0.0099,-0.0119,-0.013,-0.0133,-0.0157,-0.0159,-0.016,-0.0157,-0.0156,-0.0155,-0.0146,-0.015,0,0,0,0,0,-0.0046,-0.0042,-0.0039,-0.0039,-0.0037,-0.0042,-0.0043,-0.0044,-0.0056,-0.0062,-0.0082,-0.01,-0.0121,-0.0135,-0.0153,-0.0174,-0.0163,-0.0178,-0.0177,-0.0176,-0.0172,-0.016,-0.0157,-0.0182,-0.0182,-0.0182,0,0,-0.0049,-0.0044,-0.0043,-0.004,-0.0042,-0.0037,-0.0043,-0.0041,-0.0043,-0.0067,-0.0082,-0.01,-0.0125,-0.0145,-0.0154,-0.0157,-0.0161,-0.0175,-0.0175,-0.0171,-0.0158,-0.0156,-0.0154,-0.0182,-0.0182,-0.0182,0,0,-0.0049,-0.0048,-0.0042,-0.0037,-0.003,-0.0034,-0.003,-0.0033,-0.0041,-0.0053,-0.0071,-0.0091,-0.0119,-0.0141,-0.0156,-0.0159,-0.0154,-0.016,-0.0156,-0.0144,-0.0142,-0.014,-0.0112,-0.0107,-0.0162,-0.0162,-0.0162,0,-0.0054,-0.0042,-0.0043,-0.0031,-0.0024,-0.0029,-0.0019,-0.0031,-0.0042,-0.0049,-0.0053,-0.0087,-0.0117,-0.0142,-0.0149,-0.0159,-0.0141,-0.0163,-0.0143,-0.0141,-0.0139,-0.0111,-0.0106,-0.0162,-0.0162,-0.0162,-0.0162,0,-0.0044,-0.0033,-0.0029,-0.0016,-0.0013,-0.0004,-0.001,-0.0017,-0.0024,-0.0031,-0.0049,-0.0082,-0.01,-0.0115,-0.0141,-0.0145,-0.0132,-0.0142,-0.0148,-0.0137,-0.0107,-0.0102,-0.0162,-0.0162,-0.0162,-0.0162,0,0,-0.0053,-0.0027,-0.0024,-0.0006,0.0002,0.001,-0.0002,-0.0007,-0.0002,-0.0024,-0.0017,-0.0072,-0.0081,-0.0097,-0.0125,-0.0127,-0.0109,-0.0131,-0.0131,-0.0105,-0.0063,-0.0079,-0.0074,-0.0114,-0.0113,-0.0113,-0.0044,0,-0.0043,-0.0013,-0.0008,0.0019,0.0037,0.0031,0.0027,0.002,0.0011,0.0015,-0.0021,-0.003,-0.0076,-0.0083,-0.0094,-0.0102,-0.0097,-0.0126,-0.0075,-0.0073,-0.0091,-0.007,-0.0069,-0.0011,-0.0039,-0.0038,-0.0038,0,-0.0032,-0.0008,0.0019,0.0054,0.006,0.0066,0.0074,0.007,0.0059,0.0053,0.0034,0.002,-0.0005,-0.0033,-0.004,-0.0052,-0.0059,-0.0063,-0.006,-0.0072,-0.008,-0.0028,-0.0,-0.0029,-0.003,-0.0031,-0.0031,0,-0.0024,0.0013,0.0037,0.005,0.0079,0.008,0.0084,0.0078,0.0087,0.0073,0.0097,0.0064,0.0075,0.0047,0.0026,-0.0003,0.005,0.001,-0.0006,-0.0006,0.0006,0.0005,0.0017,0.0017,0.0017,0.0016,0.0016,0,-0.0009,0.0015,0.0044,0.0063,0.0099,0.01,0.0124,0.0119,0.0128,0.0171,0.0116,0.0176,0.0099,0.0117,0.007,0.0062,0.0085,0.0006,0.0009,0.0007,0.0005,-0.0008,-0.0012,0.0019,0.0018,0.0018,0.0018,0,0.0,0.0014,0.0056,0.0093,0.0103,0.0126,0.0156,0.0183,0.0176,0.0234,0.0235,0.0268,0.03,0.0234,0.0224,0.0139,0.0115,0.0108,0.0115,0.0116,0.0039,0.0035,0.0083,0.0083,0.0083,0.0083,0.0083,0,0.001,0.0031,0.0084,0.0112,0.0128,0.0159,0.0191,0.0198,0.024,0.0324,0.0379,0.0422,0.0497,0.0462,0.0322,0.023,0.0203,0.0142,0.006,0.0047,0.0046,0.0041,0.0037,0.009,0.009,0.009,0.009,0,0.0046,0.0058,0.0098,0.0152,0.0192,0.0246,0.0293,0.0344,0.0386,0.0471,0.0633,0.0703,0.0652,0.0584,0.0402,0.032,0.0139,0.0137,0.015,0.0057,0.0054,0.0052,0.0048,0.009,0.009,0.009,0.009,0.009,0.0078,0.0115,0.0161,0.0213,0.0257,0.0338,0.0396,0.0489,0.0613,0.0748,0.0824,0.0907,0.0766,0.055,0.042,0.0208,0.0193,0.0089,0.0088,0.0088,0.0061,0.0056,0.009,0.009,0.009,0.009,0.009,0,0.0142,0.0172,0.0222,0.0294,0.0357,0.0355,0.0473,0.0567,0.0753,0.0861,0.0996,0.0885,0.0798,0.0619,0.0313,0.0143,0.0114,0.0087,0.0088,0.0087,0.0087,0.0059,0.0088,0.0088,0.0088,0.0088,0,0,0.0178,0.0246,0.0271,0.0379,0.0411,0.0491,0.0562,0.0723,0.082,0.098,0.0996,0.1032,0.0816,0.0606,0.0403,0.0245,0.0195,0.0203,0.0214,0.0237,0.024,0.0092,0.0049,0,0,0,0,0]}],[{"header":{"parameterUnit":"m.s-1","parameterCategory":2,"la1":30.2991,"la2":30.254,"lo1":-89.0895,"lo2":-89.0444,"dy":0.0017,"dx":0.0017,"nx":28,"ny":28,"refTime":"2025-08-04T21:00:00:Z","depth":"4","parameterNumber":2,"parameterNumberName":"U-component_of_CURRENTS"},"data":[0,0,0,0,0,0,0,0,0,0,0,0,0,0,0,0,0,0,0,0,0,0,0,0,0,0,0,0,0,0,0,0,0,0,0,0,0,0,0,0,0,0,0,0,0,0,0,0,0,0,0,0,0,0,0,0,0,0,0.08,0.08,0,0.0841,0.0841,0.0841,0.0874,0.0874,0.0875,0.0875,0.0919,0.092,0.0921,0,0,0,0,0,0,0,0,0,0,0,0,0,0.0775,0.0775,0.0799,0.08,0.0801,0.0841,0.0841,0.0842,0.0874,0.0874,0.0875,0.0875,0.0919,0.092,0.0921,0,0,0,0,0,0,0,0,0,0,0,0,0,0.0796,0.0775,0.0799,0.0822,0.0825,0.0841,0.0841,0.0842,0.0874,0.0874,0.0875,0.0875,0.0919,0.092,0.0921,0.0916,0,0,0.0925,0.0925,0,0,0,0,0,0,0,0,0.0795,0.0797,0.0818,0.0821,0.0824,0.0854,0.0849,0.0867,0.0873,0.0854,0.0875,0.0876,0.0898,0.0901,0.0905,0.0918,0.092,0.0925,0.0925,0.0926,0.0926,0,0,0,0,0,0,0,0.0794,0.0796,0.0815,0.0819,0.0822,0.084,0.0843,0.0852,0.0871,0.0856,0.0858,0.0865,0.0899,0.0904,0.0907,0.092,0.0925,0.0926,0.0926,0.0927,0.097,0.0971,0,0,0,0,0,0,0.0789,0.0794,0.0813,0.0816,0.0812,0.084,0.0843,0.0843,0.0871,0.0876,0.0864,0.0866,0.0902,0.0905,0.0908,0.0946,0.0926,0.0927,0.0928,0.097,0.097,0.0971,0,0,0,0,0,0,0.0788,0.079,0.0812,0.0807,0.0812,0.0839,0.0838,0.0843,0.0866,0.0877,0.0883,0.0884,0.0903,0.0907,0.0935,0.0946,0.0928,0.0929,0.0969,0.097,0.0971,0.0993,0,0,0,0,0,0,0.0787,0.0789,0.0797,0.0807,0.0812,0.0831,0.0838,0.0843,0.0868,0.0871,0.0896,0.09,0.0903,0.0933,0.0936,0.0947,0.093,0.0969,0.097,0.097,0.0992,0.0995,0.0997,0,0,0,0,0,0.0786,0.079,0.0797,0.08,0.0818,0.0832,0.0836,0.0857,0.0868,0.088,0.09,0.09,0.094,0.0935,0.0938,0.095,0.0968,0.0969,0.097,0.0991,0.0994,0.0997,0,0,0,0,0,0,0.0791,0.0794,0.0802,0.081,0.0825,0.0838,0.0856,0.0866,0.089,0.0903,0.0909,0.0915,0.0942,0.0942,0.0936,0.0964,0.0952,0.0954,0.0967,0.097,0.0972,0.0968,0.093,0,0,0,0,0,0.0793,0.0795,0.0806,0.0816,0.0826,0.0843,0.0856,0.0871,0.0889,0.0902,0.0919,0.0935,0.0945,0.0956,0.0968,0.0985,0.0987,0.0993,0.0995,0.0997,0.0996,0.1023,0.1028,0.0974,0.0974,0.0974,0,0,0.0796,0.0802,0.0804,0.0818,0.0834,0.0842,0.0853,0.088,0.0889,0.0902,0.0932,0.0949,0.0952,0.0973,0.0985,0.0978,0.1011,0.0999,0.1001,0.0998,0.1025,0.103,0.1035,0.0975,0.0975,0.0975,0,0,0.0797,0.0813,0.0812,0.0826,0.0852,0.0861,0.087,0.0895,0.0913,0.0942,0.0949,0.097,0.0997,0.0995,0.0996,0.1017,0.1025,0.1029,0.1038,0.1065,0.1069,0.1073,0.1072,0.1076,0.1028,0.1028,0.1028,0,0.0806,0.0799,0.0817,0.0824,0.0834,0.0867,0.087,0.0891,0.0924,0.0937,0.0957,0.0992,0.1,0.1004,0.1018,0.1021,0.1039,0.1027,0.1068,0.1073,0.1077,0.1074,0.1078,0.1029,0.1029,0.1029,0.1029,0,0.0799,0.0802,0.081,0.082,0.0834,0.085,0.0874,0.0903,0.0933,0.0952,0.0986,0.1004,0.1022,0.1028,0.1035,0.106,0.1064,0.1071,0.1062,0.1084,0.1079,0.1083,0.1031,0.1031,0.103,0.103,0,0,0.0787,0.0798,0.0801,0.0799,0.0833,0.0839,0.0868,0.089,0.0912,0.0957,0.0981,0.1003,0.103,0.1032,0.1043,0.1068,0.1109,0.1093,0.1094,0.1092,0.1165,0.11,0.1097,0.1143,0.1144,0.1145,0.1147,0,0.0775,0.0765,0.0782,0.0782,0.0775,0.0819,0.0836,0.087,0.0915,0.0956,0.0983,0.1021,0.1025,0.1054,0.1075,0.1119,0.1123,0.1107,0.1144,0.1144,0.1084,0.1101,0.1148,0.115,0.1151,0.1152,0.1152,0,0.0746,0.0745,0.0733,0.0743,0.0749,0.0766,0.0805,0.0831,0.0898,0.0938,0.0985,0.1029,0.1072,0.108,0.1134,0.1137,0.1146,0.1165,0.1166,0.1099,0.1086,0.1126,0.1159,0.1158,0.1158,0.1157,0.1157,0,0.069,0.0702,0.0687,0.0694,0.0722,0.074,0.0768,0.0828,0.0871,0.0947,0.1001,0.1045,0.1099,0.1129,0.1185,0.1176,0.1249,0.123,0.1157,0.1152,0.1201,0.1196,0.124,0.124,0.124,0.124,0.124,0,0.064,0.0629,0.0666,0.0661,0.0668,0.0705,0.0747,0.0783,0.087,0.0925,0.0997,0.1043,0.1129,0.1189,0.1201,0.1204,0.1256,0.1156,0.1153,0.1207,0.1204,0.1202,0.1198,0.1241,0.1241,0.1241,0.1241,0,0.0557,0.0582,0.0573,0.0616,0.0638,0.0645,0.0746,0.0776,0.0868,0.095,0.0988,0.108,0.1147,0.1209,0.1267,0.1223,0.1231,0.1207,0.1261,0.1262,0.11,0.1097,0.1103,0.1101,0.1099,0.1097,0.1096,0,0.0503,0.049,0.054,0.0558,0.0583,0.063,0.0662,0.0759,0.0806,0.0956,0.0976,0.1089,0.1141,0.116,0.1213,0.122,0.12,0.1181,0.1125,0.1091,0.1088,0.1088,0.1087,0.1093,0.1092,0.1092,0.1091,0,0.041,0.0441,0.0446,0.0493,0.053,0.0564,0.0628,0.0665,0.0785,0.0891,0.096,0.101,0.1072,0.1105,0.1141,0.1134,0.1189,0.116,0.1163,0.111,0.108,0.1078,0.108,0.1085,0.1086,0.1087,0.1087,0,0.0362,0.035,0.0387,0.0427,0.0461,0.048,0.0528,0.0597,0.0664,0.0841,0.0857,0.0966,0.1064,0.1058,0.1084,0.1095,0.105,0.0993,0.1003,0.1011,0.0982,0.093,0.0885,0,0,0,0,0,0.032,0.0318,0.0329,0.0364,0.0389,0.042,0.0493,0.0552,0.0685,0.0711,0.0796,0.0853,0.0909,0.0942,0.093,0.1006,0.1035,0.0982,0.0969,0.1049,0.1057,0.1033,0,0,0,0,0,0,0.0298,0.0302,0.0307,0.0302,0.0317,0.0339,0.0378,0.0464,0.0491,0.0637,0.0666,0.0785,0.0838,0.0918,0.0911,0.0925,0.0892,0.1055,0.1052,0.1045,0.1052,0.1058,0.1036,0,0,0,0,0]},{"header":{"parameterUnit":"m.s-1","parameterCategory":2,"la1":30.2991,"la2":30.254,"lo1":-89.0895,"lo2":-89.0444,"dy":0.0017,"dx":0.0017,"nx":28,"ny":28,"refTime":"2025-08-04T21:00:00:Z","depth":"4","parameterNumber":3,"parameterNumberName":"V-component_of_CURRENTS"},"data":[0,0,0,0,0,0,0,0,0,0,0,0,0,0,0,0,0,0,0,0,0,0,0,0,0,0,0,0,0,0,0,0,0,0,0,0,0,0,0,0,0,0,0,0,0,0,0,0,0,0,0,0,0,0,0,0,0,0,-0.0037,-0.0037,0,-0.006,-0.006,-0.006,-0.0069,-0.0069,-0.0069,-0.0069,-0.0117,-0.0118,-0.012,0,0,0,0,0,0,0,0,0,0,0,0,0,-0.002,-0.002,-0.0037,-0.0037,-0.0037,-0.006,-0.006,-0.0061,-0.0069,-0.0069,-0.0069,-0.0068,-0.0116,-0.0118,-0.012,0,0,0,0,0,0,0,0,0,0,0,0,0,-0.0035,-0.002,-0.0037,-0.0043,-0.0044,-0.006,-0.006,-0.0061,-0.0069,-0.0069,-0.0069,-0.0068,-0.0116,-0.0118,-0.012,-0.0139,0,0,-0.0127,-0.0128,0,0,0,0,0,0,0,0,-0.0034,-0.0036,-0.0042,-0.0043,-0.0043,-0.006,-0.0072,-0.0088,-0.0069,-0.0061,-0.0069,-0.0068,-0.0099,-0.0103,-0.011,-0.0142,-0.0144,-0.0127,-0.0128,-0.0129,-0.013,0,0,0,0,0,0,0,-0.0033,-0.0035,-0.0047,-0.0042,-0.0043,-0.0051,-0.0053,-0.0075,-0.0083,-0.0062,-0.0062,-0.0062,-0.01,-0.0107,-0.0111,-0.0144,-0.0127,-0.0129,-0.013,-0.0131,-0.0189,-0.0189,0,0,0,0,0,0,-0.0027,-0.0034,-0.0046,-0.0048,-0.0036,-0.0052,-0.0054,-0.0056,-0.0082,-0.0085,-0.0063,-0.0063,-0.0104,-0.0108,-0.0112,-0.0128,-0.0129,-0.0131,-0.0132,-0.0189,-0.0189,-0.0189,0,0,0,0,0,0,-0.0026,-0.0028,-0.0045,-0.004,-0.0043,-0.0052,-0.0055,-0.0057,-0.0063,-0.0083,-0.0086,-0.0067,-0.0104,-0.0109,-0.0134,-0.013,-0.0132,-0.0134,-0.0188,-0.0189,-0.0189,-0.0164,0,0,0,0,0,0,-0.0026,-0.0027,-0.003,-0.004,-0.0043,-0.0055,-0.0055,-0.0057,-0.0063,-0.0064,-0.0088,-0.0092,-0.0104,-0.0131,-0.0136,-0.0133,-0.0136,-0.0188,-0.0188,-0.0189,-0.0165,-0.0163,-0.0162,0,0,0,0,0,-0.0025,-0.0031,-0.003,-0.0031,-0.0044,-0.0055,-0.0058,-0.0065,-0.0064,-0.0069,-0.0085,-0.0091,-0.0137,-0.0133,-0.0139,-0.0136,-0.0188,-0.0188,-0.0189,-0.0165,-0.0164,-0.0163,0,0,0,0,0,0,-0.003,-0.0033,-0.0031,-0.0039,-0.0045,-0.0056,-0.0063,-0.0065,-0.0082,-0.0083,-0.01,-0.0106,-0.0124,-0.0138,-0.0133,-0.0155,-0.0161,-0.0163,-0.0141,-0.014,-0.0139,-0.011,-0.0138,0,0,0,0,0,-0.003,-0.0032,-0.0038,-0.0043,-0.0046,-0.0054,-0.0059,-0.0062,-0.0076,-0.0083,-0.0099,-0.0116,-0.0132,-0.0141,-0.0161,-0.0177,-0.018,-0.0178,-0.0177,-0.0176,-0.0157,-0.0171,-0.0169,-0.0191,-0.0191,-0.0191,0,0,-0.0033,-0.0035,-0.0036,-0.0044,-0.005,-0.0046,-0.0057,-0.0065,-0.0059,-0.0087,-0.0094,-0.0117,-0.0137,-0.0152,-0.0161,-0.0162,-0.0173,-0.0176,-0.0175,-0.0157,-0.0171,-0.0169,-0.0167,-0.0191,-0.0191,-0.0191,0,0,-0.0033,-0.0042,-0.0039,-0.0041,-0.0045,-0.0049,-0.0049,-0.0061,-0.0064,-0.008,-0.0091,-0.0109,-0.0143,-0.0146,-0.0153,-0.0159,-0.0169,-0.017,-0.0139,-0.0154,-0.0152,-0.015,-0.0154,-0.0153,-0.0167,-0.0167,-0.0167,0,-0.0036,-0.0024,-0.0042,-0.0036,-0.0023,-0.0045,-0.0028,-0.0042,-0.006,-0.0053,-0.008,-0.0108,-0.0133,-0.0127,-0.0132,-0.0154,-0.0163,-0.0142,-0.0151,-0.0149,-0.0148,-0.0153,-0.0151,-0.0166,-0.0166,-0.0166,-0.0166,0,-0.0027,-0.0014,-0.0015,-0.0004,-0.0002,0.0006,-0.0003,-0.0008,-0.0021,-0.0027,-0.0037,-0.0079,-0.0085,-0.0105,-0.0123,-0.0119,-0.0129,-0.015,-0.015,-0.0144,-0.015,-0.0149,-0.0164,-0.0165,-0.0165,-0.0165,0,0,-0.0028,-0.0008,-0.0004,0.0026,0.0025,0.0035,0.0038,0.0052,0.0068,0.0026,0.0045,0.0002,-0.0018,-0.0027,-0.0056,-0.0075,-0.0085,-0.0106,-0.0108,-0.0102,-0.0111,-0.0119,-0.0119,-0.0112,-0.0112,-0.0112,-0.012,0,-0.0004,0.0035,0.0034,0.0081,0.0109,0.0103,0.0117,0.012,0.0103,0.0104,0.0065,0.0057,0.001,0.0003,-0.0023,-0.0073,-0.0081,-0.008,-0.0124,-0.0124,-0.0126,-0.0117,-0.0111,-0.0119,-0.0119,-0.0119,-0.0119,0,0.0019,0.005,0.0103,0.0161,0.0172,0.0189,0.023,0.0236,0.0223,0.0207,0.0186,0.0147,0.0119,0.0068,0.0005,0.0005,-0.0039,-0.0082,-0.0084,-0.0093,-0.013,-0.0128,-0.0118,-0.0118,-0.0118,-0.0118,-0.0118,0,0.0062,0.0108,0.0163,0.0179,0.0221,0.025,0.027,0.0273,0.0292,0.0272,0.027,0.0226,0.0198,0.0133,0.0033,0.0021,-0.0044,-0.0071,-0.0109,-0.011,-0.0111,-0.0113,-0.0094,-0.0094,-0.0094,-0.0094,-0.0094,0,0.0108,0.0155,0.0189,0.0222,0.0292,0.0302,0.0362,0.0363,0.037,0.0392,0.0329,0.032,0.0209,0.0149,0.0064,-0.0022,-0.0017,-0.009,-0.011,-0.0102,-0.0103,-0.0111,-0.0113,-0.0095,-0.0094,-0.0094,-0.0094,0,0.0155,0.0175,0.0241,0.0294,0.0314,0.0363,0.0423,0.0456,0.0451,0.0471,0.0467,0.0395,0.031,0.0205,0.0093,0.0023,-0.0062,-0.0088,-0.0059,-0.008,-0.0122,-0.0123,-0.012,-0.012,-0.012,-0.012,-0.0121,0,0.0186,0.0223,0.0289,0.0324,0.0351,0.042,0.0464,0.0492,0.0515,0.051,0.0514,0.0448,0.0386,0.023,0.011,-0.0029,-0.0055,-0.009,-0.0113,-0.0103,-0.0123,-0.0123,-0.0124,-0.0121,-0.0121,-0.0121,-0.0121,0,0.0242,0.0257,0.0307,0.0372,0.0425,0.0492,0.0547,0.0574,0.0594,0.0598,0.0556,0.047,0.0377,0.0236,0.013,0.0024,-0.0069,-0.0093,-0.0093,-0.0115,-0.0105,-0.0124,-0.0124,-0.0122,-0.0122,-0.0122,-0.0122,0,0.0273,0.0309,0.0355,0.0417,0.0477,0.0526,0.0567,0.0594,0.0622,0.0608,0.0592,0.0486,0.0424,0.0264,0.016,0.0059,0.003,-0.0009,-0.0014,-0.0014,0.0006,0.0033,0.0055,0,0,0,0,0,0.0301,0.0337,0.0393,0.0453,0.0509,0.0543,0.0599,0.0628,0.065,0.0629,0.0613,0.0524,0.0365,0.0288,0.0188,0.0148,0.0008,0.0027,-0.0039,-0.0126,-0.0125,-0.0122,0,0,0,0,0,0,0.0318,0.037,0.0395,0.0461,0.0504,0.0569,0.0605,0.0626,0.0611,0.0612,0.0527,0.0497,0.0339,0.0424,0.0185,0.0154,0.0097,-0.0043,-0.0046,-0.0127,-0.0126,-0.0125,-0.0122,0,0,0,0,0]}]]